| time (UTC) | temp F | wind direction | speed MPH | gust MPH | rain 1hr in | rain 24hr in | rain mn in | humidity % | barometer mb |
| 20260507144558 | 55 | 96 | 0.0 | 6.0 | 0.00 | 0.05 | 0.01 | 65 | 1012.7 |
| 20260507143058 | 54 | 25 | 2.0 | 7.0 | 0.00 | 0.05 | 0.01 | 63 | 1013.0 |
| 20260507141556 | 54 | 292 | 2.0 | 4.0 | 0.00 | 0.12 | 0.01 | 67 | 1013.0 |
| 20260507140106 | 53 | 292 | 1.0 | 8.0 | 0.00 | 0.12 | 0.01 | 65 | 1013.3 |
| 20260507134552 | 53 | 21 | 0.0 | 4.0 | 0.00 | 0.12 | 0.01 | 65 | 1013.2 |
| 20260507133051 | 53 | 319 | 2.0 | 9.0 | 0.00 | 0.12 | 0.01 | 68 | 1013.3 |
| 20260507131549 | 53 | 265 | 2.0 | 6.0 | 0.00 | 0.18 | 0.01 | 72 | 1013.2 |
| 20260507130047 | 53 | 292 | 0.0 | 2.0 | 0.00 | 0.18 | 0.01 | 73 | 1013.2 |
| 20260507124545 | 53 | 292 | 0.0 | 2.0 | 0.00 | 0.18 | 0.01 | 69 | 1013.5 |
| 20260507123043 | 52 | 292 | 1.0 | 3.0 | 0.00 | 0.18 | 0.01 | 71 | 1013.2 |
| 20260507121541 | 52 | 292 | 0.0 | 3.0 | 0.00 | 0.25 | 0.01 | 73 | 1013.2 |
| 20260507120038 | 52 | 342 | 1.0 | 3.0 | 0.00 | 0.25 | 0.01 | 75 | 1013.1 |
| 20260507114537 | 52 | 306 | 1.0 | 4.0 | 0.00 | 0.25 | 0.01 | 72 | 1012.9 |
| 20260507113040 | 52 | 288 | 0.0 | 5.0 | 0.00 | 0.25 | 0.01 | 72 | 1012.9 |
| 20260507111531 | 52 | 292 | 0.0 | 3.0 | 0.00 | 0.25 | 0.01 | 75 | 1012.9 |
| 20260507110028 | 52 | 292 | 0.0 | 4.0 | 0.00 | 0.25 | 0.01 | 78 | 1012.8 |
| 20260507104527 | 52 | 286 | 0.0 | 1.0 | 0.00 | 0.25 | 0.01 | 82 | 1012.6 |
| 20260507103025 | 52 | 286 | 0.0 | 2.0 | 0.00 | 0.25 | 0.01 | 81 | 1012.3 |
| 20260507101536 | 52 | 286 | 0.0 | 1.0 | 0.00 | 0.25 | 0.01 | 82 | 1012.2 |
| 20260507100030 | 53 | 286 | 0.0 | 3.0 | 0.00 | 0.25 | 0.01 | 82 | 1012.1 |
| 20260507094521 | 53 | 286 | 0.0 | 2.0 | 0.00 | 0.25 | 0.01 | 81 | 1012.1 |
| 20260507093025 | 53 | 286 | 0.0 | 3.0 | 0.00 | 0.25 | 0.01 | 82 | 1011.9 |
| 20260507091538 | 53 | 286 | 0.0 | 3.0 | 0.00 | 0.25 | 0.01 | 84 | 1011.8 |
| 20260507090015 | 53 | 286 | 0.0 | 2.0 | 0.00 | 0.25 | 0.01 | 84 | 1011.8 |
| 20260507084515 | 53 | 286 | 0.0 | 3.0 | 0.00 | 0.25 | 0.01 | 84 | 1011.8 |
| 20260507083017 | 53 | 309 | 3.0 | 8.0 | 0.00 | 0.25 | 0.01 | 86 | 1011.8 |
| 20260507081511 | 53 | 309 | 2.0 | 5.0 | 0.00 | 0.25 | 0.01 | 87 | 1011.6 |
| 20260507080011 | 53 | 317 | 1.0 | 3.0 | 0.00 | 0.25 | 0.01 | 89 | 1011.1 |
| 20260507074512 | 53 | 317 | 0.0 | 2.0 | 0.01 | 0.25 | 0.01 | 90 | 1011.1 |
| 20260507073010 | 53 | 317 | 0.0 | 2.0 | 0.01 | 0.25 | 0.01 | 89 | 1010.9 |
| 20260507071509 | 53 | 317 | 1.0 | 5.0 | 0.01 | 0.25 | 0.01 | 89 | 1011.1 |
| 20260507070140 | 54 | 281 | 1.0 | 5.0 | 0.01 | 0.25 | 0.01 | 88 | 1010.9 |
| 20260507064509 | 54 | 5 | 1.0 | 5.0 | 0.00 | 0.24 | 0.00 | 87 | 1011.1 |
| 20260507063005 | 54 | 309 | 2.0 | 7.0 | 0.00 | 0.24 | 0.00 | 87 | 1011.2 |
| 20260507061510 | 55 | 319 | 1.0 | 5.0 | 0.00 | 0.24 | 0.00 | 88 | 1011.1 |
| 20260507060100 | 55 | 273 | 1.0 | 4.0 | 0.00 | 0.24 | 0.00 | 89 | 1011.0 |
| 20260507054617 | 55 | 268 | 1.0 | 3.0 | 0.00 | 0.24 | 0.00 | 89 | 1011.1 |
| 20260507053057 | 55 | 320 | 2.0 | 6.0 | 0.00 | 0.24 | 0.00 | 89 | 1011.2 |
| 20260507051554 | 55 | 282 | 1.0 | 5.0 | 0.00 | 0.24 | 0.24 | 88 | 1011.2 |
| 20260507050053 | 55 | 282 | 0.0 | 3.0 | 0.00 | 0.24 | 0.24 | 87 | 1011.3 |
| 20260507044551 | 56 | 245 | 3.0 | 9.0 | 0.00 | 0.24 | 0.24 | 86 | 1011.4 |
| 20260507043050 | 57 | 320 | 2.0 | 6.0 | 0.00 | 0.24 | 0.24 | 84 | 1010.8 |
| 20260507041546 | 57 | 322 | 3.0 | 13.0 | 0.00 | 0.24 | 0.24 | 83 | 1011.2 |
| 20260507040048 | 58 | 329 | 3.0 | 12.0 | 0.00 | 0.24 | 0.24 | 82 | 1011.2 |
| 20260507034543 | 59 | 294 | 2.0 | 8.0 | 0.00 | 0.24 | 0.24 | 81 | 1010.7 |
| 20260507033038 | 59 | 310 | 2.0 | 8.0 | 0.00 | 0.24 | 0.24 | 81 | 1010.7 |
| 20260507031537 | 60 | 267 | 2.0 | 7.0 | 0.00 | 0.24 | 0.24 | 80 | 1010.7 |
| 20260507030040 | 60 | 286 | 4.0 | 12.0 | 0.00 | 0.24 | 0.24 | 80 | 1010.6 |
| 20260507024535 | 61 | 304 | 1.0 | 13.0 | 0.00 | 0.24 | 0.24 | 80 | 1009.9 |
| 20260507023034 | 61 | 315 | 2.0 | 8.0 | 0.00 | 0.24 | 0.24 | 81 | 1010.2 |
| 20260507021532 | 61 | 287 | 2.0 | 11.0 | 0.00 | 0.24 | 0.24 | 80 | 1010.0 |
| 20260507020033 | 62 | 290 | 2.0 | 10.0 | 0.00 | 0.24 | 0.24 | 80 | 1009.7 |
| 20260507014531 | 62 | 310 | 2.0 | 9.0 | 0.00 | 0.24 | 0.24 | 81 | 1010.0 |
| 20260507013032 | 63 | 360 | 2.0 | 8.0 | 0.00 | 0.24 | 0.24 | 83 | 1009.9 |
| 20260507011532 | 64 | 298 | 1.0 | 10.0 | 0.00 | 0.24 | 0.24 | 83 | 1009.8 |
| 20260507010030 | 64 | 284 | 2.0 | 11.0 | 0.00 | 0.24 | 0.24 | 83 | 1009.9 |
| 20260507004529 | 65 | 360 | 3.0 | 11.0 | 0.00 | 0.24 | 0.24 | 83 | 1009.8 |
| 20260507003028 | 66 | 229 | 2.0 | 11.0 | 0.00 | 0.24 | 0.24 | 84 | 1009.4 |
| 20260507001526 | 67 | 195 | 1.0 | 3.0 | 0.00 | 0.24 | 0.24 | 83 | 1009.3 |
| 20260507000028 | 67 | 195 | 1.0 | 3.0 | 0.00 | 0.24 | 0.24 | 82 | 1008.9 |
| 20260506234527 | 67 | 195 | 1.0 | 3.0 | 0.00 | 0.24 | 0.24 | 81 | 1008.7 |
| 20260506233027 | 68 | 161 | 0.0 | 4.0 | 0.00 | 0.24 | 0.24 | 81 | 1008.3 |
| 20260506231526 | 68 | 202 | 1.0 | 5.0 | 0.00 | 0.24 | 0.24 | 81 | 1008.5 |
| 20260506230024 | 68 | 144 | 0.0 | 4.0 | 0.00 | 0.24 | 0.24 | 80 | 1008.1 |
| 20260506224524 | 68 | 213 | 0.0 | 7.0 | 0.00 | 0.24 | 0.24 | 80 | 1008.2 |
| 20260506223024 | 68 | 192 | 2.0 | 8.0 | 0.00 | 0.24 | 0.24 | 79 | 1008.1 |
| 20260506221524 | 69 | 192 | 2.0 | 7.0 | 0.00 | 0.24 | 0.24 | 78 | 1008.2 |
| 20260506220029 | 69 | 153 | 2.0 | 8.0 | 0.00 | 0.24 | 0.24 | 78 | 1008.2 |
| 20260506214522 | 69 | 113 | 3.0 | 15.0 | 0.00 | 0.24 | 0.24 | 79 | 1008.2 |
| 20260506213021 | 69 | 259 | 2.0 | 10.0 | 0.00 | 0.24 | 0.24 | 78 | 1008.2 |
| 20260506211520 | 69 | 193 | 2.0 | 7.0 | 0.00 | 0.24 | 0.24 | 78 | 1007.8 |
| 20260506210021 | 70 | 178 | 4.0 | 8.0 | 0.00 | 0.24 | 0.24 | 76 | 1007.6 |
| 20260506204524 | 70 | 258 | 5.0 | 10.0 | 0.00 | 0.24 | 0.24 | 76 | 1007.4 |
| 20260506203018 | 70 | 180 | 4.0 | 17.0 | 0.00 | 0.24 | 0.24 | 76 | 1007.5 |
| 20260506201523 | 69 | 181 | 3.0 | 11.0 | 0.00 | 0.24 | 0.24 | 78 | 1007.6 |
| 20260506200024 | 69 | 132 | 5.0 | 11.0 | 0.00 | 0.24 | 0.24 | 76 | 1007.6 |
| 20260506194514 | 69 | 215 | 4.0 | 11.0 | 0.00 | 0.24 | 0.24 | 77 | 1007.7 |
| 20260506193016 | 69 | 305 | 5.0 | 13.0 | 0.00 | 0.24 | 0.24 | 76 | 1007.8 |
| 20260506191512 | 68 | 239 | 4.0 | 10.0 | 0.00 | 0.24 | 0.24 | 76 | 1007.8 |
| 20260506190012 | 68 | 180 | 4.0 | 15.0 | 0.00 | 0.24 | 0.24 | 78 | 1007.9 |
| 20260506184510 | 68 | 197 | 7.0 | 13.0 | 0.00 | 0.24 | 0.24 | 78 | 1008.1 |
| 20260506183008 | 66 | 180 | 4.0 | 12.0 | 0.00 | 0.24 | 0.24 | 80 | 1008.3 |
| 20260506181506 | 66 | 204 | 6.0 | 18.0 | 0.00 | 0.24 | 0.24 | 80 | 1008.2 |
| 20260506180006 | 66 | 184 | 6.0 | 17.0 | 0.00 | 0.24 | 0.24 | 80 | 1008.3 |
| 20260506174503 | 65 | 192 | 5.0 | 17.0 | 0.00 | 0.24 | 0.24 | 82 | 1008.5 |
| 20260506173002 | 65 | 298 | 4.0 | 18.0 | 0.00 | 0.24 | 0.24 | 84 | 1008.6 |
| 20260506171601 | 65 | 203 | 6.0 | 15.0 | 0.00 | 0.24 | 0.24 | 83 | 1008.5 |
| 20260506170100 | 63 | 283 | 7.0 | 19.0 | 0.00 | 0.24 | 0.24 | 85 | 1008.6 |
| 20260506164559 | 63 | 184 | 5.0 | 18.0 | 0.00 | 0.24 | 0.24 | 86 | 1008.6 |
| 20260506163109 | 62 | 217 | 9.0 | 16.0 | 0.00 | 0.24 | 0.24 | 88 | 1008.7 |
| 20260506161600 | 62 | 217 | 8.0 | 19.0 | 0.00 | 0.24 | 0.24 | 88 | 1008.9 |
| 20260506160056 | 62 | 134 | 5.0 | 14.0 | 0.00 | 0.24 | 0.24 | 89 | 1008.8 |
| 20260506154601 | 61 | 161 | 6.0 | 18.0 | 0.01 | 0.24 | 0.24 | 91 | 1009.0 |
| 20260506153052 | 61 | 169 | 4.0 | 10.0 | 0.01 | 0.24 | 0.24 | 92 | 1008.9 |
| 20260506151550 | 60 | 198 | 4.0 | 15.0 | 0.04 | 0.24 | 0.24 | 92 | 1009.2 |
| 20260506150048 | 60 | 156 | 4.0 | 11.0 | 0.04 | 0.24 | 0.24 | 92 | 1009.3 |